Time,TemperatureF,DewpointF,PressureIn,WindDirection,WindDirectionDegrees,WindSpeedMPH,WindSpeedGustMPH,Humidity,HourlyPrecipIn,Conditions,Clouds,dailyrainin,SoftwareType,DateUTC
2013-01-11 00:00:00,30.6,21.3,30.38,East,93,1.0,3.0,68,0.00,,,0.01,Wunderground v.1.15,2013-01-11 05:00:00,
2013-01-11 00:10:00,30.5,21.2,30.38,NE,44,1.0,1.0,68,0.00,,,0.00,Wunderground v.1.15,2013-01-11 05:10:00,
2013-01-11 00:20:00,30.1,21.2,30.37,East,96,1.0,1.0,69,0.00,,,0.00,Wunderground v.1.15,2013-01-11 05:20:00,
2013-01-11 00:30:00,29.7,21.1,30.37,NE,49,0.0,1.0,70,0.00,,,0.00,Wunderground v.1.15,2013-01-11 05:30:00,
2013-01-11 00:40:00,29.5,20.9,30.37,ENE,61,1.0,1.0,70,0.00,,,0.00,Wunderground v.1.15,2013-01-11 05:40:00,
2013-01-11 00:50:00,29.1,20.9,30.37,North,9,0.0,0.0,71,0.00,,,0.00,Wunderground v.1.15,2013-01-11 05:50:00,
2013-01-11 01:00:00,28.9,21.0,30.36,ENE,58,1.0,6.0,72,0.00,,,0.00,Wunderground v.1.15,2013-01-11 06:00:00,
2013-01-11 01:10:00,29.3,21.1,30.36,NE,36,2.0,3.0,71,0.00,,,0.00,Wunderground v.1.15,2013-01-11 06:10:00,
2013-01-11 01:20:00,29.4,21.2,30.36,NE,46,2.0,4.0,71,0.00,,,0.00,Wunderground v.1.15,2013-01-11 06:20:00,
2013-01-11 01:30:00,29.4,21.2,30.35,NE,41,2.0,3.0,71,0.00,,,0.00,Wunderground v.1.15,2013-01-11 06:30:00,
2013-01-11 01:40:00,29.6,21.0,30.36,East,94,3.0,3.0,70,0.00,,,0.00,Wunderground v.1.15,2013-01-11 06:40:00,
2013-01-11 01:50:00,29.3,20.7,30.36,East,96,2.0,2.0,70,0.00,,,0.00,Wunderground v.1.15,2013-01-11 06:50:00,
2013-01-11 02:00:00,29.3,21.1,30.36,East,84,2.0,3.0,71,0.00,,,0.00,Wunderground v.1.15,2013-01-11 07:00:00,
2013-01-11 02:10:00,29.2,21.0,30.36,East,84,3.0,3.0,71,0.00,,,0.00,Wunderground v.1.15,2013-01-11 07:10:00,
2013-01-11 02:20:00,29.1,20.9,30.35,East,92,3.0,4.0,71,0.00,,,0.00,Wunderground v.1.15,2013-01-11 07:20:00,
2013-01-11 02:30:00,29.0,20.8,30.35,ENE,71,3.0,4.0,71,0.00,,,0.00,Wunderground v.1.15,2013-01-11 07:30:00,
2013-01-11 02:40:00,29.0,20.8,30.34,ENE,70,4.0,4.0,71,0.00,,,0.00,Wunderground v.1.15,2013-01-11 07:40:00,
2013-01-11 02:50:00,29.0,20.8,30.35,East,97,4.0,4.0,71,0.00,,,0.00,Wunderground v.1.15,2013-01-11 07:50:00,
2013-01-11 03:00:00,28.8,20.6,30.35,East,92,4.0,4.0,71,0.00,,,0.00,Wunderground v.1.15,2013-01-11 08:00:00,
2013-01-11 03:10:00,28.8,20.6,30.35,East,91,3.0,6.0,71,0.00,,,0.00,Wunderground v.1.15,2013-01-11 08:10:00,
2013-01-11 03:20:00,28.6,20.4,30.35,East,82,4.0,4.0,71,0.00,,,0.00,Wunderground v.1.15,2013-01-11 08:20:00,
2013-01-11 03:30:00,28.6,20.4,30.35,East,99,3.0,3.0,71,0.00,,,0.00,Wunderground v.1.15,2013-01-11 08:30:00,
2013-01-11 03:40:00,28.4,20.2,30.34,East,98,2.0,2.0,71,0.00,,,0.00,Wunderground v.1.15,2013-01-11 08:40:00,
2013-01-11 03:50:00,28.3,20.1,30.34,ENE,67,2.0,2.0,71,0.00,,,0.00,Wunderground v.1.15,2013-01-11 08:50:00,
2013-01-11 04:00:00,28.2,20.3,30.35,ENE,77,2.0,2.0,72,0.00,,,0.00,Wunderground v.1.15,2013-01-11 09:00:00,
2013-01-11 04:10:00,27.9,20.0,30.35,NE,35,1.0,1.0,72,0.00,,,0.00,Wunderground v.1.15,2013-01-11 09:10:00,
2013-01-11 04:20:00,27.9,20.0,30.34,East,91,2.0,3.0,72,0.00,,,0.00,Wunderground v.1.15,2013-01-11 09:20:00,
2013-01-11 04:30:00,27.7,19.8,30.34,ENE,75,2.0,2.0,72,0.00,,,0.00,Wunderground v.1.15,2013-01-11 09:30:00,
2013-01-11 04:40:00,27.5,19.7,30.34,NE,46,0.0,1.0,72,0.00,,,0.00,Wunderground v.1.15,2013-01-11 09:40:00,
2013-01-11 04:50:00,27.3,19.8,30.34,ENE,76,1.0,1.0,73,0.00,,,0.00,Wunderground v.1.15,2013-01-11 09:50:00,
2013-01-11 05:00:00,27.2,19.7,30.34,East,88,2.0,2.0,73,0.00,,,0.00,Wunderground v.1.15,2013-01-11 10:00:00,
2013-01-11 05:10:00,27.1,19.6,30.34,East,101,2.0,2.0,73,0.00,,,0.00,Wunderground v.1.15,2013-01-11 10:10:00,
2013-01-11 05:20:00,27.1,19.6,30.34,NNE,27,2.0,2.0,73,0.00,,,0.00,Wunderground v.1.15,2013-01-11 10:20:00,
2013-01-11 05:30:00,26.8,19.3,30.34,NNE,33,0.0,1.0,73,0.00,,,0.00,Wunderground v.1.15,2013-01-11 10:30:00,
2013-01-11 05:40:00,26.7,19.2,30.34,East,86,1.0,3.0,73,0.00,,,0.00,Wunderground v.1.15,2013-01-11 10:40:00,
2013-01-11 05:50:00,26.3,18.8,30.35,East,96,0.0,0.0,73,0.00,,,0.00,Wunderground v.1.15,2013-01-11 10:50:00,
2013-01-11 06:00:00,25.9,19.1,30.35,East,96,0.0,0.0,75,0.00,,,0.00,Wunderground v.1.15,2013-01-11 11:00:00,
2013-01-11 06:10:00,25.1,18.6,30.35,East,96,0.0,0.0,76,0.00,,,0.00,Wunderground v.1.15,2013-01-11 11:10:00,
2013-01-11 06:20:00,24.3,18.4,30.36,East,96,0.0,0.0,78,0.00,,,0.00,Wunderground v.1.15,2013-01-11 11:20:00,
2013-01-11 06:30:00,23.7,18.1,30.37,East,96,0.0,0.0,79,0.00,,,0.00,Wunderground v.1.15,2013-01-11 11:30:00,
2013-01-11 06:40:00,22.7,18.0,30.37,East,96,0.0,0.0,82,0.00,,,0.00,Wunderground v.1.15,2013-01-11 11:40:00,
2013-01-11 06:50:00,22.3,17.6,30.37,East,96,0.0,0.0,82,0.00,,,0.00,Wunderground v.1.15,2013-01-11 11:50:00,
2013-01-11 07:00:00,22.0,17.9,30.37,East,96,0.0,0.0,84,0.00,,,0.00,Wunderground v.1.15,2013-01-11 12:00:00,
2013-01-11 07:10:00,22.1,18.3,30.37,East,96,0.0,1.0,85,0.00,,,0.00,Wunderground v.1.15,2013-01-11 12:10:00,
2013-01-11 07:20:00,22.5,18.7,30.38,East,86,0.0,0.0,85,0.00,,,0.00,Wunderground v.1.15,2013-01-11 12:20:00,
2013-01-11 07:30:00,23.4,19.0,30.39,ENE,60,1.0,1.0,83,0.00,,,0.00,Wunderground v.1.15,2013-01-11 12:30:00,
2013-01-11 07:40:00,23.6,18.9,30.39,ENE,74,0.0,0.0,82,0.00,,,0.00,Wunderground v.1.15,2013-01-11 12:40:00,
2013-01-11 07:50:00,23.6,18.9,30.39,ENE,74,0.0,0.0,82,0.00,,,0.00,Wunderground v.1.15,2013-01-11 12:50:00,
2013-01-11 08:00:00,23.6,18.9,30.40,ENE,74,0.0,0.0,82,0.00,,,0.00,Wunderground v.1.15,2013-01-11 13:00:00,
2013-01-11 08:10:00,24.1,19.1,30.41,ENE,74,0.0,0.0,81,0.00,,,0.00,Wunderground v.1.15,2013-01-11 13:10:00,
2013-01-11 08:20:00,24.6,19.6,30.40,ENE,74,0.0,0.0,81,0.00,,,0.00,Wunderground v.1.15,2013-01-11 13:20:00,
2013-01-11 08:30:00,26.2,20.0,30.40,ENE,75,0.0,0.0,77,0.00,,,0.00,Wunderground v.1.15,2013-01-11 13:30:00,
2013-01-11 08:40:00,27.3,20.1,30.40,SSE,148,0.0,0.0,74,0.00,,,0.00,Wunderground v.1.15,2013-01-11 13:40:00,
2013-01-11 08:50:00,28.0,20.1,30.40,SE,146,0.0,0.0,72,0.00,,,0.00,Wunderground v.1.15,2013-01-11 13:50:00,
2013-01-11 09:00:00,28.8,20.2,30.40,SE,146,0.0,0.0,70,0.00,,,0.00,Wunderground v.1.15,2013-01-11 14:00:00,
2013-01-11 09:10:00,29.6,20.3,30.39,SSE,165,1.0,2.0,68,0.00,,,0.00,Wunderground v.1.15,2013-01-11 14:10:00,
2013-01-11 09:20:00,30.1,19.7,30.39,SSE,162,2.0,2.0,65,0.00,,,0.00,Wunderground v.1.15,2013-01-11 14:20:00,
2013-01-11 09:30:00,30.3,19.6,30.39,ENE,70,2.0,2.0,64,0.00,,,0.00,Wunderground v.1.15,2013-01-11 14:30:00,
2013-01-11 09:40:00,30.8,20.0,30.38,SSE,153,1.0,1.0,64,0.00,,,0.00,Wunderground v.1.15,2013-01-11 14:40:00,
2013-01-11 09:50:00,31.0,19.9,30.38,SW,224,1.0,3.0,63,0.00,,,0.00,Wunderground v.1.15,2013-01-11 14:50:00,
2013-01-11 10:00:00,31.2,19.7,30.38,SSE,156,2.0,2.0,62,0.00,,,0.00,Wunderground v.1.15,2013-01-11 15:00:00,
2013-01-11 10:10:00,31.6,20.4,30.38,South,177,2.0,2.0,63,0.00,,,0.00,Wunderground v.1.15,2013-01-11 15:10:00,
2013-01-11 10:20:00,32.0,20.8,30.37,SSE,149,1.0,1.0,63,0.00,,,0.00,Wunderground v.1.15,2013-01-11 15:20:00,
2013-01-11 10:30:00,32.1,21.3,30.37,SW,235,2.0,3.0,64,0.00,,,0.00,Wunderground v.1.15,2013-01-11 15:30:00,
2013-01-11 10:40:00,32.1,20.9,30.36,SSW,194,2.0,2.0,63,0.00,,,0.00,Wunderground v.1.15,2013-01-11 15:40:00,
2013-01-11 10:50:00,32.3,21.5,30.35,SSW,192,1.0,1.0,64,0.00,,,0.00,Wunderground v.1.15,2013-01-11 15:50:00,
2013-01-11 11:00:00,32.5,21.7,30.34,SE,146,1.0,2.0,64,0.00,,,0.00,Wunderground v.1.15,2013-01-11 16:00:00,
2013-01-11 11:10:00,32.5,21.7,30.33,SSE,152,2.0,2.0,64,0.00,,,0.00,Wunderground v.1.15,2013-01-11 16:10:00,
2013-01-11 11:20:00,32.7,22.2,30.32,South,170,2.0,2.0,65,0.00,,,0.00,Wunderground v.1.15,2013-01-11 16:20:00,
2013-01-11 11:30:00,32.8,22.3,30.31,SW,216,1.0,2.0,65,0.00,,,0.00,Wunderground v.1.15,2013-01-11 16:30:00,
2013-01-11 11:40:00,33.3,22.4,30.31,SW,214,2.0,2.0,64,0.00,,,0.00,Wunderground v.1.15,2013-01-11 16:40:00,
2013-01-11 11:50:00,33.6,22.3,30.30,SSW,205,2.0,2.0,63,0.00,,,0.00,Wunderground v.1.15,2013-01-11 16:50:00,
2013-01-11 12:00:00,33.8,22.1,30.30,SSW,200,2.0,4.0,62,0.00,,,0.00,Wunderground v.1.15,2013-01-11 17:00:00,
2013-01-11 12:10:00,33.8,22.1,30.29,South,186,2.0,2.0,62,0.00,,,0.00,Wunderground v.1.15,2013-01-11 17:10:00,
2013-01-11 12:20:00,33.9,22.2,30.28,SSE,152,2.0,2.0,62,0.00,,,0.00,Wunderground v.1.15,2013-01-11 17:20:00,
2013-01-11 12:30:00,34.1,22.8,30.28,SSE,155,1.0,2.0,63,0.00,,,0.00,Wunderground v.1.15,2013-01-11 17:30:00,
2013-01-11 12:40:00,33.9,22.2,30.28,South,169,1.0,2.0,62,0.00,,,0.00,Wunderground v.1.15,2013-01-11 17:40:00,
2013-01-11 12:50:00,33.7,22.1,30.28,SSE,154,1.0,1.0,62,0.00,,,0.00,Wunderground v.1.15,2013-01-11 17:50:00,
2013-01-11 13:00:00,33.7,21.7,30.28,SW,232,1.0,1.0,61,0.00,,,0.00,Wunderground v.1.15,2013-01-11 18:00:00,
2013-01-11 13:10:00,34.1,22.0,30.27,SSW,210,1.0,1.0,61,0.00,,,0.00,Wunderground v.1.15,2013-01-11 18:10:00,
2013-01-11 13:20:00,34.6,21.7,30.28,South,187,0.0,0.0,59,0.00,,,0.00,Wunderground v.1.15,2013-01-11 18:20:00,
2013-01-11 13:30:00,35.1,21.8,30.28,South,188,1.0,1.0,58,0.00,,,0.00,Wunderground v.1.15,2013-01-11 18:30:00,
2013-01-11 13:40:00,35.5,22.2,30.27,WSW,238,0.0,0.0,58,0.00,,,0.00,Wunderground v.1.15,2013-01-11 18:40:00,
2013-01-11 13:50:00,35.4,22.9,30.27,West,270,0.0,0.0,60,0.00,,,0.00,Wunderground v.1.15,2013-01-11 18:50:00,
2013-01-11 14:00:00,35.3,23.2,30.27,West,270,0.0,0.0,61,0.00,,,0.00,Wunderground v.1.15,2013-01-11 19:00:00,
2013-01-11 14:10:00,35.4,22.9,30.26,West,271,0.0,0.0,60,0.00,,,0.00,Wunderground v.1.15,2013-01-11 19:10:00,
2013-01-11 14:20:00,35.3,23.2,30.25,West,271,0.0,0.0,61,0.00,,,0.00,Wunderground v.1.15,2013-01-11 19:20:00,
2013-01-11 14:30:00,35.2,23.5,30.25,West,271,0.0,0.0,62,0.00,,,0.00,Wunderground v.1.15,2013-01-11 19:30:00,
2013-01-11 14:40:00,35.1,24.9,30.25,West,271,0.0,0.0,66,0.00,,,0.00,Wunderground v.1.15,2013-01-11 19:40:00,
2013-01-11 14:50:00,35.0,24.8,30.25,West,271,0.0,0.0,66,0.00,,,0.00,Wunderground v.1.15,2013-01-11 19:50:00,
2013-01-11 15:00:00,34.9,25.0,30.25,West,271,0.0,0.0,67,0.00,,,0.00,Wunderground v.1.15,2013-01-11 20:00:00,
2013-01-11 15:10:00,34.7,24.5,30.24,West,271,0.0,0.0,66,0.00,,,0.00,Wunderground v.1.15,2013-01-11 20:10:00,
2013-01-11 15:20:00,34.5,25.0,30.23,West,271,0.0,0.0,68,0.00,,,0.00,Wunderground v.1.15,2013-01-11 20:20:00,
2013-01-11 15:30:00,34.3,24.5,30.23,West,271,0.0,0.0,67,0.00,,,0.00,Wunderground v.1.15,2013-01-11 20:30:00,
2013-01-11 15:40:00,34.2,24.0,30.23,West,271,0.0,0.0,66,0.00,,,0.00,Wunderground v.1.15,2013-01-11 20:40:00,
2013-01-11 15:50:00,34.1,23.9,30.22,West,271,0.0,0.0,66,0.00,,,0.00,Wunderground v.1.15,2013-01-11 20:50:00,
2013-01-11 16:00:00,34.0,23.5,30.22,West,271,0.0,0.0,65,0.00,,,0.00,Wunderground v.1.15,2013-01-11 21:00:00,
2013-01-11 16:10:00,33.9,24.1,30.22,West,271,0.0,0.0,67,0.00,,,0.00,Wunderground v.1.15,2013-01-11 21:10:00,
2013-01-11 16:20:00,33.7,25.3,30.22,West,271,0.0,0.0,71,0.00,,,0.00,Wunderground v.1.15,2013-01-11 21:20:00,
2013-01-11 16:30:00,33.4,25.0,30.22,West,271,0.0,0.0,71,0.00,,,0.00,Wunderground v.1.15,2013-01-11 21:30:00,
2013-01-11 16:40:00,33.1,24.7,30.22,West,271,0.0,0.0,71,0.00,,,0.00,Wunderground v.1.15,2013-01-11 21:40:00,
2013-01-11 16:50:00,32.8,24.4,30.22,West,271,0.0,0.0,71,0.00,,,0.00,Wunderground v.1.15,2013-01-11 21:50:00,
2013-01-11 17:00:00,32.6,23.6,30.21,West,271,0.0,0.0,69,0.00,,,0.00,Wunderground v.1.15,2013-01-11 22:00:00,
2013-01-11 17:10:00,32.4,25.0,30.21,West,271,0.0,0.0,74,0.00,,,0.00,Wunderground v.1.15,2013-01-11 22:10:00,
2013-01-11 17:20:00,32.4,25.7,30.20,West,271,0.0,0.0,76,0.00,,,0.00,Wunderground v.1.15,2013-01-11 22:20:00,
2013-01-11 17:30:00,32.3,24.9,30.20,West,271,0.0,0.0,74,0.00,,,0.00,Wunderground v.1.15,2013-01-11 22:30:00,
2013-01-11 17:40:00,32.4,24.0,30.20,West,271,0.0,0.0,71,0.00,,,0.00,Wunderground v.1.15,2013-01-11 22:40:00,
2013-01-11 17:50:00,32.7,24.7,30.20,West,271,0.0,0.0,72,0.00,,,0.00,Wunderground v.1.15,2013-01-11 22:50:00,
2013-01-11 18:00:00,32.8,24.4,30.21,West,271,0.0,0.0,71,0.00,,,0.00,Wunderground v.1.15,2013-01-11 23:00:00,
2013-01-11 18:10:00,32.8,24.4,30.20,West,271,0.0,0.0,71,0.00,,,0.00,Wunderground v.1.15,2013-01-11 23:10:00,
2013-01-11 18:20:00,32.8,24.8,30.21,West,271,0.0,0.0,72,0.00,,,0.00,Wunderground v.1.15,2013-01-11 23:20:00,
2013-01-11 18:40:00,32.8,26.1,30.22,West,271,0.0,0.0,76,0.00,,,0.00,Wunderground v.1.15,2013-01-11 23:40:00,
2013-01-11 18:50:00,32.7,26.6,30.23,West,271,0.0,0.0,78,0.00,,,0.00,Wunderground v.1.15,2013-01-11 23:50:00,
2013-01-11 19:00:00,32.6,27.1,30.23,West,271,0.0,0.0,80,0.00,,,0.00,Wunderground v.1.15,2013-01-12 00:00:00,
2013-01-11 19:10:00,32.4,27.2,30.22,West,271,0.0,0.0,81,0.00,,,0.00,Wunderground v.1.15,2013-01-12 00:10:00,
2013-01-11 19:20:00,32.1,27.5,30.21,West,271,0.0,0.0,83,0.00,,,0.00,Wunderground v.1.15,2013-01-12 00:20:00,
2013-01-11 19:30:00,32.4,26.0,30.20,South,177,0.0,0.0,77,0.00,,,0.00,Wunderground v.1.15,2013-01-12 00:30:00,
2013-01-11 19:40:00,32.9,25.8,30.20,SSW,208,0.0,0.0,75,0.00,,,0.00,Wunderground v.1.15,2013-01-12 00:40:00,
2013-01-11 19:50:00,33.1,25.7,30.20,SSW,208,0.0,0.0,74,0.00,,,0.00,Wunderground v.1.15,2013-01-12 00:50:00,
2013-01-11 20:00:00,33.1,25.7,30.20,SSW,208,0.0,0.0,74,0.00,,,0.00,Wunderground v.1.15,2013-01-12 01:00:00,
2013-01-11 20:10:00,33.2,26.1,30.20,SSW,208,0.0,0.0,75,0.00,,,0.00,Wunderground v.1.15,2013-01-12 01:10:00,
2013-01-11 20:20:00,33.2,26.1,30.19,SSW,195,0.0,0.0,75,0.00,,,0.00,Wunderground v.1.15,2013-01-12 01:20:00,
2013-01-11 20:30:00,33.2,26.1,30.18,South,188,0.0,0.0,75,0.00,,,0.00,Wunderground v.1.15,2013-01-12 01:30:00,
2013-01-11 20:40:00,33.3,26.2,30.18,South,190,0.0,0.0,75,0.00,,,0.00,Wunderground v.1.15,2013-01-12 01:40:00,
2013-01-11 20:50:00,33.4,26.3,30.18,South,190,0.0,0.0,75,0.00,,,0.00,Wunderground v.1.15,2013-01-12 01:50:00,
2013-01-11 21:00:00,33.4,26.6,30.18,South,190,0.0,0.0,76,0.00,,,0.00,Wunderground v.1.15,2013-01-12 02:00:00,
2013-01-11 21:10:00,33.3,27.5,30.19,South,190,0.0,0.0,79,0.00,,,0.00,Wunderground v.1.15,2013-01-12 02:10:00,
2013-01-11 21:20:00,33.1,27.0,30.19,South,190,0.0,0.0,78,0.00,,,0.00,Wunderground v.1.15,2013-01-12 02:20:00,
2013-01-11 21:30:00,33.0,26.9,30.18,South,190,0.0,0.0,78,0.00,,,0.00,Wunderground v.1.15,2013-01-12 02:30:00,
2013-01-11 21:40:00,33.2,27.1,30.18,South,190,0.0,0.0,78,0.00,,,0.00,Wunderground v.1.15,2013-01-12 02:40:00,
2013-01-11 21:50:00,33.5,27.1,30.17,South,190,0.0,0.0,77,0.00,,,0.00,Wunderground v.1.15,2013-01-12 02:50:00,
2013-01-11 22:00:00,33.7,27.3,30.17,South,174,0.0,0.0,77,0.00,,,0.00,Wunderground v.1.15,2013-01-12 03:00:00,
2013-01-11 22:20:00,34.1,27.3,30.16,South,174,0.0,0.0,76,0.00,,,0.00,Wunderground v.1.15,2013-01-12 03:20:00,
2013-01-11 22:30:00,34.4,27.9,30.16,South,186,0.0,0.0,77,0.00,,,0.00,Wunderground v.1.15,2013-01-12 03:30:00,
2013-01-11 22:40:00,34.6,28.1,30.16,South,174,0.0,0.0,77,0.00,,,0.00,Wunderground v.1.15,2013-01-12 03:40:00,
2013-01-11 22:50:00,34.8,28.6,30.16,South,176,0.0,0.0,78,0.00,,,0.00,Wunderground v.1.15,2013-01-12 03:50:00,
2013-01-11 23:00:00,35.0,29.1,30.15,South,180,1.0,1.0,79,0.00,,,0.00,Wunderground v.1.15,2013-01-12 04:00:00,
2013-01-11 23:10:00,35.2,29.6,30.14,South,174,1.0,1.0,80,0.00,,,0.00,Wunderground v.1.15,2013-01-12 04:10:00,
2013-01-11 23:20:00,35.5,29.9,30.15,South,183,0.0,1.0,80,0.00,,,0.00,Wunderground v.1.15,2013-01-12 04:20:00,
2013-01-11 23:30:00,35.6,30.3,30.14,South,183,0.0,0.0,81,0.00,,,0.00,Wunderground v.1.15,2013-01-12 04:30:00,
2013-01-11 23:40:00,35.8,30.5,30.14,SSW,210,0.0,0.0,81,0.00,,,0.00,Wunderground v.1.15,2013-01-12 04:40:00,
2013-01-11 23:50:00,35.9,30.6,30.15,SSW,210,0.0,0.0,81,0.00,,,0.00,Wunderground v.1.15,2013-01-12 04:50:00,